SWOT

Last updated on Thu Oct 30 2025 00:02:32 GMT+0000 (Coordinated Universal Time)

1 54754U 22173A 25302.47688184 .00000053 00000+0 37371-4 0 9990 2 54754 77.6116 346.7477 0000313 226.7729 133.3397 14.00171072146862
UTC large
Height (km)
Speed (km/s)
/
Latitude / Longitude
Inclination (degrees)
Orbital Period (minutes)
Azimuth
Elevation
Range (km)
Doppler Factor

Next 0 passes for location: London (51.5072 / 0.1276)

Sorry there are no passes over London.